Location: Arrien
(43.3167°N, 0.1500°W)
Time: 04:09:07
(UTC+00:00)

CZ-2C R/B - Pass Details

Date: 15 October 2021
Orbit: 784 x 871 km, 98.2° (Epoch: 02 December)

Event Time Altitude Azimuth Distance (km) Brightness Sun altitude
Rises 18:07:27 0° 15° (NNE) 3,470 5.7 -9.9°
Reaches altitude 10° 18:09:53 10° 18° (NNE) 2,527 5.0 -10.3°
Maximum altitude 18:15:30 69° 101° (ESE) 925 2.7 -11.3°
Drops below altitude 10° 18:21:01 10° 185° (S) 2,484 5.2 -12.3°
Sets 18:23:23 0° 188° (S) 3,406 6.0 -12.8°
